Temp
-13 -13 -13 -13 -13 -13 -13 -14 -14 -14 -14 -15 -15 -15 -16 -16 -17 -18 -18 -18 -19 -19 -18 -18 -18 -18 -17 -17 -17 -17 -17 -16 -17 -17 -17 -18 -17 -17
-13 -13 -13 -13 -13 -13 -13 -14 -14 -15 -15 -15 -15 -15 -16 -16 -17 -18 -18 -18 -18 -18 -19 -19 -18 -18 -18 -18 -18 -18 -18 -18 -18 -18 -18 -18 -18 -18
-13 -13 -13 -13 -13 -14 -14 -14 -14 -15 -15 -15 -15 -16 -16 -16 -16 -17 -17 -17 -18 -19 -18 -18 -19 -19 -19 -19 -19 -19 -19 -19 -18 -18 -18 -18 -18 -19
-13 -13 -13 -13 -14 -14 -14 -14 -14 -15 -15 -16 -16 -16 -16 -16 -17 -17 -17 -17 -18 -18 -18 -18 -19 -19 -19 -19 -20 -20 -20 -20 -20 -20 -20 -19 -19 -19
-13 -13 -14 -14 -14 -14 -14 -15 -15 -15 -16 -16 -16 -16 -17 -17 -17 -17 -17 -18 -18 -18 -19 -19 -19 -20 -20 -20 -20 -20 -20 -20 -20 -20 -20 -20 -20 -20
-14 -14 -14 -14 -14 -15 -15 -15 -15 -16 -16 -16 -17 -17 -17 -17 -17 -17 -18 -18 -18 -19 -19 -20 -20 -20 -20 -21 -21 -20 -20 -20 -20 -20 -20 -21 -21 -20
-14 -14 -14 -14 -15 -15 -15 -16 -16 -16 -17 -17 -17 -17 -17 -17 -17 -18 -18 -18 -19 -20 -20 -20 -20 -21 -21 -21 -21 -21 -21 -21 -21 -22 -23 -23 -23 -23
-14 -14 -15 -15 -15 -15 -16 -16 -16 -17 -17 -17 -17 -17 -17 -18 -18 -18 -19 -19 -20 -20 -20 -20 -21 -21 -21 -21 -21 -21 -22 -23 -23 -23 -24 -24 -24 -24
-14 -15 -15 -15 -16 -16 -16 -17 -17 -17 -17 -17 -17 -17 -18 -18 -18 -19 -19 -20 -20 -21 -21 -21 -21 -22 -22 -22 -22 -22 -23 -24 -24 -24 -24 -24 -24 -24
-15 -15 -15 -16 -16 -16 -17 -17 -17 -17 -17 -17 -17 -18 -18 -18 -19 -19 -20 -20 -21 -21 -22 -22 -22 -22 -22 -22 -22 -23 -24 -24 -25 -25 -25 -25 -25 -25
-15 -16 -16 -16 -16 -17 -17 -17 -17 -17 -17 -18 -18 -18 -19 -19 -19 -20 -20 -21 -21 -22 -22 -22 -22 -23 -23 -23 -23 -23 -25 -25 -25 -25 -25 -25 -25 -25
-16 -16 -16 -17 -17 -17 -17 -17 -17 -17 -18 -18 -18 -19 -19 -20 -20 -20 -21 -21 -22 -22 -23 -23 -23 -23 -24 -24 -24 -24 -25 -25 -25 -25 -25 -25 -25 -25
-16 -17 -17 -17 -17 -18 -17 -18 -18 -18 -18 -18 -18 -19 -20 -20 -21 -21 -21 -22 -23 -23 -23 -23 -23 -24 -24 -25 -25 -26 -26 -26 -26 -26 -26 -25 -25 -25
-17 -17 -18 -18 -18 -18 -18 -18 -18 -18 -18 -19 -19 -19 -20 -21 -21 -21 -22 -23 -23 -23 -23 -23 -24 -24 -24 -25 -26 -27 -26 -26 -26 -26 -26 -26 -26 -25
-17 -18 -18 -18 -18 -18 -18 -18 -19 -19 -19 -19 -19 -20 -21 -21 -21 -22 -23 -23 -24 -24 -24 -24 -24 -24 -25 -25 -26 -27 -27 -27 -26 -26 -26 -26 -26 -25
-18 -18 -18 -18 -18 -18 -19 -19 -19 -19 -19 -19 -20 -21 -21 -21 -22 -23 -23 -23 -24 -24 -24 -24 -24 -24 -25 -26 -26 -27 -27 -26 -27 -26 -26 -26 -26 -26
-18 -18 -18 -18 -19 -19 -19 -19 -19 -20 -20 -20 -21 -21 -21 -22 -22 -23 -23 -23 -24 -24 -24 -24 -24 -25 -25 -27 -27 -27 -27 -27 -27 -27 -26 -26 -26 -26
-18 -18 -18 -19 -19 -19 -19 -19 -20 -20 -20 -21 -21 -22 -22 -22 -23 -23 -23 -24 -24 -24 -24 -25 -25 -25 -26 -28 -28 -28 -27 -27 -27 -27 -26 -26 -26 -26
-18 -19 -19 -19 -19 -19 -19 -20 -20 -20 -21 -21 -22 -22 -23 -23 -24 -24 -24 -24 -24 -24 -24 -25 -25 -26 -26 -28 -29 -29 -28 -28 -27 -27 -26 -26 -26 -26
-19 -19 -19 -19 -19 -19 -20 -20 -21 -21 -21 -22 -22 -23 -23 -24 -24 -24 -24 -24 -24 -24 -25 -25 -25 -26 -26 -27 -28 -29 -28 -28 -28 -28 -27 -26 -25 -25
-19 -19 -19 -19 -20 -20 -20 -21 -21 -21 -22 -22 -23 -23 -24 -24 -25 -24 -24 -24 -24 -24 -25 -25 -26 -26 -26 -27 -28 -29 -29 -28 -28 -28 -27 -26 -25 -25
-19 -19 -20 -20 -20 -20 -21 -21 -22 -22 -22 -23 -23 -24 -24 -24 -25 -25 -25 -25 -25 -25 -25 -25 -26 -26 -27 -27 -28 -29 -29 -29 -28 -28 -27 -25 -25 -25
-20 -20 -20 -20 -20 -21 -21 -22 -22 -22 -23 -23 -24 -24 -24 -25 -25 -25 -25 -25 -25 -25 -25 -25 -26 -26 -27 -28 -28 -29 -29 -28 -28 -28 -28 -27 -26 -25
Height
5758 5755 5753 5751 5749 5747 5743 5739 5734 5730 5726 5722 5715 5709 5703 5697 5691 5687 5683 5681 5676 5675 5673 5670 5667 5668 5666 5666 5666 5665 5663 5664 5663 5662 5660 5660 5661 5662
5748 5746 5743 5742 5740 5737 5733 5729 5723 5718 5715 5712 5706 5700 5695 5688 5682 5677 5674 5670 5667 5665 5665 5661 5659 5657 5655 5653 5652 5650 5650 5649 5648 5646 5645 5645 5645 5645
5739 5736 5735 5733 5731 5728 5725 5720 5715 5710 5705 5702 5697 5692 5686 5680 5675 5670 5665 5662 5660 5657 5654 5652 5649 5646 5644 5642 5640 5639 5637 5636 5635 5632 5631 5629 5629 5629
5729 5728 5727 5725 5723 5720 5715 5711 5706 5701 5697 5692 5688 5683 5678 5673 5668 5662 5658 5655 5652 5649 5646 5642 5639 5637 5632 5630 5629 5627 5625 5622 5620 5617 5614 5613 5612 5611
5722 5720 5719 5716 5714 5710 5706 5701 5697 5692 5688 5683 5679 5675 5669 5665 5660 5655 5651 5647 5643 5639 5636 5632 5629 5626 5624 5622 5618 5616 5611 5608 5604 5601 5599 5596 5595 5594
5713 5711 5710 5707 5704 5700 5697 5692 5688 5684 5679 5675 5671 5666 5661 5657 5651 5647 5643 5638 5634 5631 5627 5623 5620 5617 5614 5610 5606 5601 5597 5592 5587 5582 5578 5575 5572 5570
5705 5703 5701 5698 5695 5691 5687 5682 5678 5675 5671 5666 5662 5657 5653 5648 5643 5638 5634 5629 5625 5622 5617 5614 5609 5606 5601 5596 5591 5586 5581 5574 5568 5562 5558 5554 5551 5549
5697 5695 5692 5689 5685 5681 5677 5673 5670 5666 5662 5658 5654 5649 5644 5639 5634 5629 5625 5620 5616 5612 5607 5603 5598 5594 5589 5584 5579 5573 5566 5559 5553 5547 5542 5538 5535 5533
5688 5685 5683 5680 5676 5672 5669 5665 5662 5658 5654 5650 5645 5641 5636 5630 5625 5620 5615 5610 5606 5601 5595 5591 5586 5582 5577 5572 5566 5559 5552 5547 5540 5534 5530 5527 5523 5521
5679 5677 5674 5671 5668 5664 5661 5657 5654 5650 5646 5641 5636 5631 5626 5620 5615 5610 5605 5600 5595 5589 5583 5578 5574 5568 5563 5558 5552 5545 5539 5534 5528 5523 5519 5515 5511 5508
5670 5668 5666 5663 5660 5656 5653 5649 5646 5642 5638 5633 5628 5622 5617 5611 5605 5600 5595 5589 5584 5579 5573 5567 5563 5555 5549 5544 5538 5533 5527 5522 5517 5513 5509 5505 5502 5499
5663 5660 5657 5654 5651 5648 5645 5641 5637 5634 5629 5624 5619 5613 5607 5601 5595 5590 5584 5578 5572 5567 5563 5557 5550 5545 5536 5529 5525 5520 5515 5511 5507 5502 5499 5495 5492 5490
5653 5651 5649 5646 5644 5641 5637 5634 5629 5625 5620 5615 5609 5603 5597 5591 5585 5579 5572 5565 5560 5555 5551 5545 5539 5533 5526 5519 5508 5505 5502 5499 5495 5491 5489 5485 5482 5479
5645 5643 5641 5639 5636 5633 5629 5625 5621 5617 5611 5605 5599 5593 5587 5581 5574 5567 5560 5553 5548 5543 5538 5534 5528 5522 5516 5510 5503 5493 5490 5487 5485 5482 5479 5475 5471 5469
5638 5636 5633 5631 5628 5625 5621 5617 5613 5608 5602 5596 5590 5583 5577 5571 5563 5555 5548 5542 5537 5532 5527 5521 5516 5510 5503 5498 5494 5484 5482 5477 5473 5472 5470 5466 5462 5459
5630 5627 5625 5623 5620 5617 5613 5608 5603 5598 5592 5586 5580 5573 5566 5559 5551 5544 5538 5532 5526 5519 5515 5510 5504 5498 5492 5484 5479 5474 5469 5467 5463 5460 5460 5457 5453 5451
5622 5620 5618 5615 5611 5608 5603 5599 5594 5588 5583 5576 5569 5563 5556 5548 5540 5534 5527 5520 5514 5507 5500 5495 5491 5486 5479 5472 5466 5461 5459 5455 5452 5449 5449 5449 5444 5442
5615 5612 5609 5606 5603 5599 5594 5590 5584 5579 5572 5566 5559 5552 5545 5537 5529 5523 5517 5510 5503 5496 5490 5482 5475 5469 5463 5457 5452 5450 5447 5445 5441 5438 5437 5439 5436 5430
5607 5604 5601 5598 5594 5590 5585 5580 5575 5569 5563 5556 5549 5541 5533 5525 5518 5511 5505 5499 5492 5486 5478 5470 5462 5456 5451 5446 5442 5436 5437 5433 5430 5427 5426 5426 5427 5424
5599 5596 5593 5589 5585 5580 5575 5570 5565 5559 5553 5546 5539 5531 5523 5515 5508 5500 5494 5487 5481 5473 5465 5455 5448 5443 5438 5434 5433 5426 5424 5424 5420 5418 5415 5414 5415 5415
5590 5587 5583 5580 5575 5570 5565 5560 5554 5548 5542 5535 5528 5520 5512 5505 5497 5490 5483 5475 5468 5461 5453 5443 5434 5428 5424 5420 5420 5418 5413 5411 5410 5408 5406 5403 5404 5405
5580 5577 5574 5570 5565 5560 5555 5550 5544 5538 5531 5524 5516 5508 5500 5493 5486 5478 5471 5463 5455 5448 5440 5431 5422 5416 5410 5407 5406 5407 5405 5401 5397 5397 5392 5390 5391 5394
5571 5567 5564 5560 5555 5550 5545 5539 5533 5527 5520 5513 5505 5497 5489 5481 5473 5466 5459 5450 5443 5435 5426 5419 5410 5403 5398 5393 5392 5393 5393 5392 5391 5390 5385 5379 5378 5378
Wind_Speed
37 36 37 38 34 37 41 45 48 47 46 45 48 45 42 42 43 42 44 43 49 47 43 41 36 36 43 51 43 45 46 49 50 49 48 47 48 52
38 38 38 32 35 40 43 46 48 46 44 44 44 43 41 39 39 41 42 40 38 44 43 38 39 43 39 39 42 42 43 43 44 44 45 47 50 52
38 37 31 34 39 42 44 44 45 44 42 43 43 41 38 36 35 36 34 34 36 38 37 37 36 36 37 37 37 38 39 41 44 45 46 47 51 53
34 32 33 37 41 42 42 43 42 40 41 45 44 41 38 38 41 37 35 33 34 39 38 37 37 35 35 35 36 38 40 41 44 45 46 49 50 51
31 32 35 39 41 42 41 42 40 41 43 42 40 38 38 39 38 36 37 39 39 37 35 36 36 37 38 39 42 45 48 50 52 53 54 56 57 57
31 33 37 40 41 41 41 41 40 38 37 37 40 39 38 37 37 37 37 37 37 37 38 39 38 41 42 46 48 50 51 52 54 56 57 59 61 63
33 34 39 39 40 41 40 38 38 37 37 37 36 35 35 36 37 38 38 39 40 38 39 39 42 44 48 50 53 52 54 54 51 49 48 49 50 52
33 37 37 39 40 38 38 38 36 34 33 34 34 36 37 38 39 40 40 41 41 41 43 44 46 46 47 48 49 52 52 48 45 46 45 43 42 42
35 37 38 39 37 37 36 33 31 33 34 34 35 37 39 41 42 42 42 42 42 43 44 44 44 44 45 46 49 51 49 44 43 41 40 41 41 40
35 35 36 34 35 35 32 31 32 32 33 35 37 39 41 43 43 43 43 43 43 43 43 44 44 47 44 45 50 51 46 41 41 37 37 35 35 34
33 33 32 33 34 31 31 31 31 32 34 36 38 40 42 43 42 43 43 44 43 42 42 42 45 44 46 47 49 49 43 40 39 36 33 32 32 31
31 30 31 32 30 29 29 30 32 34 35 37 40 42 42 42 42 43 46 44 42 42 43 43 44 45 48 50 50 47 41 38 37 34 31 31 31 32
28 31 31 30 28 28 30 32 33 35 37 39 41 42 42 42 44 47 48 44 43 43 43 44 45 46 48 49 48 46 42 39 36 35 32 31 32 30
30 31 29 28 27 29 31 32 35 37 39 41 43 43 42 44 48 49 46 44 44 44 44 45 46 47 48 48 43 45 42 40 37 36 34 33 32 28
30 28 28 28 28 31 32 35 37 40 42 43 44 43 43 47 50 48 43 43 44 45 45 46 47 49 50 48 43 43 40 40 39 37 34 34 32 31
27 28 28 29 30 32 34 37 40 42 44 44 44 44 47 49 50 44 42 43 44 46 46 47 49 50 52 50 45 42 41 37 37 36 34 34 34 32
27 28 28 29 31 34 37 39 41 42 44 43 44 46 48 52 48 43 42 43 44 46 49 50 52 55 52 47 43 40 38 36 35 35 35 33 35 33
28 29 29 30 33 36 38 40 41 42 43 43 45 48 51 53 46 44 43 44 45 47 50 54 58 57 50 44 41 38 37 35 36 34 34 31 32 36
29 30 31 32 35 37 40 42 43 43 43 44 46 51 55 49 44 45 45 45 46 48 54 58 58 52 45 39 37 38 34 34 34 33 33 33 30 33
31 32 33 35 38 40 41 42 42 43 43 44 48 51 55 46 44 45 46 47 47 51 56 58 56 50 44 39 31 37 35 31 33 31 32 34 32 31
33 34 36 37 39 41 42 42 43 43 43 46 51 53 52 47 46 48 49 50 50 53 56 55 53 49 45 41 31 32 36 35 33 31 31 34 34 30
34 36 38 39 41 42 42 42 43 45 47 51 54 52 51 50 49 50 50 52 53 54 57 53 50 48 46 42 33 31 33 35 35 33 33 32 32 29
38 38 39 41 42 42 42 43 44 47 50 53 53 52 51 51 51 51 52 54 54 56 57 53 49 47 45 43 36 32 32 34 32 31 34 36 35 34
Wind_Direction
287 287 288 289 288 293 296 298 299 303 301 302 307 307 308 307 300 296 297 292 285 291 293 286 291 302 293 272 288 281 281 282 277 277 280 283 272 261
286 289 290 288 293 298 300 298 302 302 301 307 309 305 306 308 309 303 298 295 295 295 292 297 291 290 286 285 282 283 281 279 277 276 275 273 270 270
287 287 281 288 296 296 299 299 302 299 298 306 309 308 305 306 308 310 304 296 295 301 300 296 293 294 298 297 292 287 283 280 280 278 277 276 273 270
284 280 282 289 295 295 299 299 300 299 297 303 305 303 305 306 307 306 303 304 301 301 303 301 299 299 299 297 294 290 287 286 285 284 281 277 274 272
278 282 282 289 292 295 297 299 301 300 296 300 302 304 308 306 306 306 302 302 301 304 303 300 299 299 297 295 294 294 292 289 286 283 278 275 273 270
279 279 285 291 293 296 296 298 299 298 298 300 300 304 305 305 306 307 305 306 306 306 303 300 297 297 298 300 302 299 297 296 291 285 278 273 270 266
280 284 289 293 295 297 298 299 298 297 298 300 304 304 305 308 309 308 308 306 305 302 298 298 297 298 302 302 303 301 301 302 296 291 286 282 279 274
280 289 291 294 294 296 298 299 299 300 300 301 302 307 308 307 307 306 305 304 303 298 296 296 296 296 300 305 307 309 307 302 298 294 289 287 285 280
286 291 292 294 294 298 301 299 298 299 302 303 305 307 307 308 308 306 304 301 300 298 296 296 297 299 301 308 314 312 306 302 299 295 287 287 284 280
288 290 293 293 297 300 298 297 301 304 304 306 308 310 309 308 308 307 305 304 303 300 298 298 298 302 304 311 319 314 306 301 302 294 291 289 287 282
287 290 290 298 299 297 298 301 301 304 307 310 311 311 310 310 310 309 309 306 302 299 298 299 301 305 310 314 316 314 305 301 302 295 290 285 284 283
284 289 296 296 296 296 298 301 304 308 311 311 311 311 311 311 312 310 310 305 299 298 298 300 303 306 310 313 313 312 304 301 302 300 297 292 288 285
288 292 294 295 292 295 301 304 307 310 310 311 313 313 313 313 313 314 311 306 301 299 299 300 301 304 308 312 308 306 304 302 300 300 302 299 295 287
291 291 291 289 292 298 301 305 308 309 310 313 316 315 314 315 316 316 311 306 302 301 301 301 302 304 306 310 305 299 299 297 293 293 296 300 305 303
290 289 288 289 295 298 301 305 308 310 313 315 316 315 315 317 319 315 311 307 303 303 303 304 304 305 307 309 305 293 292 293 289 287 290 296 302 305
291 293 291 293 295 298 303 306 309 311 312 315 316 315 318 320 320 313 310 310 307 306 306 306 305 305 308 308 302 291 292 291 286 281 282 289 294 299
295 295 295 296 299 302 305 307 310 311 313 315 314 316 320 323 318 312 312 310 308 307 308 308 307 307 310 304 299 293 294 293 289 280 277 281 287 292
295 297 299 301 302 304 306 307 308 310 313 314 316 318 322 324 316 313 313 311 310 310 309 309 311 312 309 304 298 292 294 294 293 284 274 274 285 291
297 299 301 303 304 305 307 308 309 311 314 314 316 320 323 321 316 314 313 312 311 311 311 313 312 312 307 299 293 291 295 297 297 289 277 275 278 285
298 300 303 304 305 307 309 309 310 312 314 316 319 320 323 318 316 315 315 313 312 313 315 314 312 311 307 300 285 284 289 296 297 293 281 276 275 280
299 301 304 305 306 308 309 308 310 312 315 318 321 320 320 317 314 314 315 314 313 314 317 315 312 310 307 301 285 274 283 290 294 291 281 273 272 275
301 303 303 305 306 308 308 309 311 313 315 319 320 320 318 316 314 314 314 314 314 315 317 315 311 309 307 302 283 265 273 283 293 299 294 277 269 265
298 301 303 305 307 307 307 308 311 315 314 318 318 318 317 316 315 314 313 314 314 315 317 315 311 308 306 300 284 263 266 273 280 291 296 292 289 282